sat.trackr.live / text

‹ back to catalog

STARLINK-36899

NORAD 68058 · 2026-041U

PAYLOAD ACTIVE UNKNOWN

§ Identity

Operator
Country
US
Launch date
2026-03-02
Launch site
AFETR
Launch vehicle
Mass (kg)
RCS (m²)

Purposes: comms

External: N2YO · Heavens-Above · Gunter

§ Orbital elements

Epoch: 2026-09-19T10:36:22.062528Z

Period
93.85 min
Inclination
53.1594°
Eccentricity
0.0000586
Mean motion
15.34405563 rev/d
Perigee alt
462.3 km
Apogee alt
463.1 km
Semi-major
6,840.8 km
B*
5.7651e-4
RAAN
226.3081°
Arg perigee
82.4056°
Mean anomaly
277.7014°
Rev number
3,110

§ Raw data

STARLINK-368991 68058U 26041U   26262.44192202  .00019156  00000+0  57651-3 0  99902 68058  53.1594 226.3081 0000586  82.4056 277.7014 15.34405563 31101

JSON: /api/v1/satellites/68058 · /tle

For live sub-satellite position, see the globe view (requires WebGL).

§ Visibility from observer

Set your observer location to see the next 7 days of passes ≥ 10°. The values pass through the URL so the page stays shareable.

No JS? Fill the form by hand. The geolocation button needs JavaScript.